AUA28R EDDV-LOWW

Flight info

Callsign AUA28R
Flight time 1h 7m
Altitude 35000
Route POVEL4F POVEL Y800 TADUV Z21 OSTRA DCT OMELO DCT EVIKU DCT BITSI DCT MIKOV MIKOV8W
Aircraft A320/M-SDE3FGHIRWY/LB1

Departure

Time 2026-04-20 17:19
Airport Hannover Airport (EDDV)

Arrival

Time 2026-04-20 18:26
Airport Vienna International Airport (LOWW)
Time Latitude Longitude Altitude Speed Heading
2026-04-20 16:51 52.45830 9.69385 179 ft 0 kts 24°
2026-04-20 17:08 52.45829 9.69384 178 ft 2 kts 24°
2026-04-20 17:08 52.45807 9.69365 178 ft 4 kts 34°
2026-04-20 17:08 52.45785 9.69342 179 ft 4 kts 37°
2026-04-20 17:09 52.45767 9.69311 179 ft 4 kts 70°
2026-04-20 17:09 52.45765 9.69276 178 ft 1 kts 101°
2026-04-20 17:13 52.45764 9.69283 178 ft 2 kts 101°
2026-04-20 17:13 52.45760 9.69325 179 ft 6 kts 94°
2026-04-20 17:13 52.45758 9.69399 179 ft 6 kts 94°
2026-04-20 17:13 52.45733 9.69468 180 ft 8 kts 141°
2026-04-20 17:14 52.45685 9.69531 180 ft 8 kts 123°
2026-04-20 17:14 52.45678 9.69613 180 ft 7 kts 91°
2026-04-20 17:14 52.45677 9.69678 181 ft 5 kts 92°
2026-04-20 17:14 52.45676 9.69723 181 ft 5 kts 92°
2026-04-20 17:15 52.45672 9.69788 182 ft 6 kts 108°
2026-04-20 17:15 52.45641 9.69825 182 ft 7 kts 158°
2026-04-20 17:15 52.45603 9.69893 180 ft 9 kts 107°
2026-04-20 17:15 52.45598 9.70003 179 ft 10 kts 92°
2026-04-20 17:16 52.45596 9.70105 180 ft 8 kts 92°
2026-04-20 17:16 52.45592 9.70222 181 ft 12 kts 93°
2026-04-20 17:16 52.45587 9.70400 179 ft 19 kts 92°
2026-04-20 17:16 52.45581 9.70630 179 ft 19 kts 92°
2026-04-20 17:17 52.45576 9.70825 179 ft 16 kts 92°
2026-04-20 17:17 52.45570 9.70992 178 ft 12 kts 100°
2026-04-20 17:17 52.45532 9.71084 180 ft 8 kts 144°
2026-04-20 17:17 52.45478 9.71101 181 ft 9 kts 185°
2026-04-20 17:18 52.45426 9.71094 182 ft 6 kts 196°
2026-04-20 17:18 52.45407 9.71026 183 ft 10 kts 269°
2026-04-20 17:18 52.45410 9.70901 182 ft 16 kts 272°
2026-04-20 17:18 52.45426 9.70321 175 ft 87 kts 272°
2026-04-20 17:19 52.45462 9.68995 198 ft 142 kts 273°
2026-04-20 17:19 52.45509 9.67361 744 ft 145 kts 273°
2026-04-20 17:19 52.45553 9.65676 1353 ft 152 kts 276°
2026-04-20 17:19 52.45606 9.63844 1714 ft 172 kts 277°
2026-04-20 17:20 52.45670 9.61771 2055 ft 191 kts 277°
2026-04-20 17:20 52.45727 9.59498 2403 ft 211 kts 276°
2026-04-20 17:20 52.45785 9.56993 2923 ft 225 kts 276°
2026-04-20 17:20 52.45561 9.54419 3580 ft 236 kts 245°
2026-04-20 17:21 52.44495 9.52382 4310 ft 239 kts 210°
2026-04-20 17:21 52.43061 9.51014 5138 ft 239 kts 207°
2026-04-20 17:21 52.41617 9.49667 5988 ft 239 kts 207°
2026-04-20 17:21 52.40170 9.48312 6842 ft 239 kts 207°
2026-04-20 17:22 52.38694 9.47055 7610 ft 239 kts 195°
2026-04-20 17:22 52.37063 9.46733 8313 ft 237 kts 169°
2026-04-20 17:22 52.35526 9.47547 8965 ft 240 kts 146°
2026-04-20 17:22 52.34279 9.49470 9298 ft 258 kts 119°
2026-04-20 17:23 52.33544 9.52240 9750 ft 273 kts 108°
2026-04-20 17:23 52.32877 9.55201 10368 ft 285 kts 109°
2026-04-20 17:23 52.32158 9.58363 10644 ft 309 kts 109°
2026-04-20 17:23 52.31373 9.61763 10929 ft 329 kts 109°
2026-04-20 17:24 52.30544 9.65294 11560 ft 336 kts 109°
2026-04-20 17:24 52.29697 9.68875 12298 ft 340 kts 109°
2026-04-20 17:24 52.28839 9.72503 13047 ft 344 kts 109°
2026-04-20 17:24 52.27975 9.76161 13793 ft 347 kts 109°
2026-04-20 17:25 52.27102 9.79856 14459 ft 351 kts 109°
2026-04-20 17:25 52.26218 9.83592 15101 ft 354 kts 109°
2026-04-20 17:25 52.25330 9.87365 15745 ft 358 kts 108°
2026-04-20 17:25 52.24706 9.91296 16375 ft 360 kts 99°
2026-04-20 17:26 52.24205 9.95323 16971 ft 365 kts 99°
2026-04-20 17:26 52.23696 9.99406 17568 ft 369 kts 99°
2026-04-20 17:26 52.23179 10.03521 18186 ft 373 kts 100°
2026-04-20 17:26 52.22652 10.07688 18748 ft 377 kts 100°
2026-04-20 17:27 52.22116 10.11890 19296 ft 380 kts 100°
2026-04-20 17:27 52.21574 10.16122 19863 ft 383 kts 100°
2026-04-20 17:27 52.21025 10.20386 20430 ft 386 kts 100°
2026-04-20 17:27 52.20471 10.24688 20996 ft 389 kts 100°
2026-04-20 17:28 52.19914 10.29016 21546 ft 391 kts 100°
2026-04-20 17:28 52.19357 10.33313 22069 ft 394 kts 101°
2026-04-20 17:28 52.18423 10.37545 22573 ft 400 kts 112°
2026-04-20 17:28 52.17244 10.41673 23062 ft 404 kts 113°
2026-04-20 17:29 52.16040 10.45827 23525 ft 408 kts 113°
2026-04-20 17:29 52.14815 10.50018 23958 ft 411 kts 113°
2026-04-20 17:29 52.13581 10.54235 24359 ft 413 kts 113°
2026-04-20 17:29 52.12341 10.58470 24759 ft 416 kts 113°
2026-04-20 17:30 52.11094 10.62725 25144 ft 418 kts 113°
2026-04-20 17:30 52.09840 10.66996 25522 ft 420 kts 113°
2026-04-20 17:30 52.08579 10.71291 25896 ft 422 kts 113°
2026-04-20 17:30 52.07311 10.75606 26266 ft 424 kts 113°
2026-04-20 17:31 52.06036 10.79943 26638 ft 426 kts 114°
2026-04-20 17:31 52.04752 10.84302 27010 ft 428 kts 113°
2026-04-20 17:31 52.03481 10.88614 27326 ft 431 kts 113°
2026-04-20 17:31 52.02177 10.93027 27667 ft 433 kts 114°
2026-04-20 17:32 52.00870 10.97441 27999 ft 435 kts 114°
2026-04-20 17:32 51.99549 11.01886 28299 ft 438 kts 114°
2026-04-20 17:32 51.98221 11.06341 28609 ft 440 kts 114°
2026-04-20 17:32 51.96882 11.10827 28921 ft 442 kts 114°
2026-04-20 17:33 51.95539 11.15326 29219 ft 444 kts 114°
2026-04-20 17:33 51.94190 11.19836 29503 ft 446 kts 114°
2026-04-20 17:33 51.92828 11.24373 29779 ft 448 kts 114°
2026-04-20 17:33 51.91462 11.28925 30062 ft 450 kts 114°
2026-04-20 17:34 51.90089 11.33497 30300 ft 452 kts 114°
2026-04-20 17:34 51.88709 11.38082 30510 ft 454 kts 114°
2026-04-20 17:34 51.87342 11.42609 30779 ft 453 kts 114°
2026-04-20 17:34 51.85955 11.47187 31048 ft 454 kts 114°
2026-04-20 17:35 51.84562 11.51773 31314 ft 454 kts 114°
2026-04-20 17:35 51.83152 11.56414 31577 ft 454 kts 114°
2026-04-20 17:35 51.81681 11.60946 31824 ft 456 kts 120°
2026-04-20 17:35 51.79953 11.65248 32082 ft 457 kts 122°
2026-04-20 17:36 51.78227 11.69491 32346 ft 458 kts 122°
2026-04-20 17:36 51.76477 11.73792 32601 ft 458 kts 122°
2026-04-20 17:36 51.74726 11.78089 32860 ft 459 kts 122°
2026-04-20 17:36 51.72970 11.82392 33113 ft 459 kts 122°
2026-04-20 17:37 51.71209 11.86705 33368 ft 460 kts 122°
2026-04-20 17:37 51.69447 11.91010 33613 ft 460 kts 122°
2026-04-20 17:37 51.68280 11.93860 33789 ft 461 kts 122°
2026-04-20 17:37 51.66509 11.98174 34019 ft 462 kts 122°
2026-04-20 17:38 51.64727 12.02503 34197 ft 464 kts 122°
2026-04-20 17:38 51.62941 12.06834 34392 ft 465 kts 122°
2026-04-20 17:38 51.61152 12.11172 34602 ft 465 kts 122°
2026-04-20 17:38 51.59361 12.15511 34830 ft 466 kts 122°
2026-04-20 17:39 51.57568 12.19854 35030 ft 466 kts 122°
2026-04-20 17:39 51.53969 12.28537 35114 ft 467 kts 122°
2026-04-20 17:40 51.50360 12.37206 35115 ft 466 kts 122°
2026-04-20 17:40 51.46745 12.45868 35110 ft 466 kts 122°
2026-04-20 17:41 51.43149 12.54439 35109 ft 467 kts 122°
2026-04-20 17:41 51.39639 12.63177 35099 ft 466 kts 120°
2026-04-20 17:42 51.36263 12.72035 35092 ft 466 kts 120°
2026-04-20 17:42 51.32878 12.80875 35085 ft 467 kts 121°
2026-04-20 17:43 51.29427 12.89685 35071 ft 467 kts 121°
2026-04-20 17:43 51.25940 12.98396 35077 ft 468 kts 122°
2026-04-20 17:44 51.22375 13.07093 35068 ft 468 kts 122°
2026-04-20 17:44 51.18805 13.15769 35067 ft 468 kts 122°
2026-04-20 17:45 51.15251 13.24456 35058 ft 468 kts 122°
2026-04-20 17:45 51.11697 13.33144 35061 ft 468 kts 122°
2026-04-20 17:46 51.08122 13.41813 35066 ft 468 kts 122°
2026-04-20 17:46 51.04546 13.50442 35064 ft 468 kts 122°
2026-04-20 17:47 51.00965 13.59076 35054 ft 468 kts 122°
2026-04-20 17:47 50.97372 13.67706 35038 ft 470 kts 122°
2026-04-20 17:48 50.93762 13.76354 35037 ft 471 kts 122°
2026-04-20 17:48 50.90138 13.85015 35037 ft 471 kts 122°
2026-04-20 17:49 50.86496 13.93664 35036 ft 472 kts 123°
2026-04-20 17:49 50.82534 14.01849 35041 ft 473 kts 135°
2026-04-20 17:50 50.77689 14.08902 35043 ft 473 kts 137°
2026-04-20 17:50 50.72821 14.15919 35054 ft 474 kts 137°
2026-04-20 17:51 50.67948 14.22933 35034 ft 475 kts 137°
2026-04-20 17:51 50.63061 14.29950 35030 ft 476 kts 137°
2026-04-20 17:52 50.58158 14.36956 35032 ft 477 kts 137°
2026-04-20 17:52 50.53236 14.43965 35034 ft 477 kts 137°
2026-04-20 17:53 50.48313 14.50966 35041 ft 477 kts 137°
2026-04-20 17:53 50.43407 14.58007 35058 ft 477 kts 136°
2026-04-20 17:54 50.38647 14.65262 35042 ft 477 kts 135°
2026-04-20 17:54 50.33948 14.72536 35041 ft 478 kts 136°
2026-04-20 17:55 50.29178 14.79796 35042 ft 479 kts 136°
2026-04-20 17:55 50.24365 14.87005 35052 ft 479 kts 136°
2026-04-20 17:56 50.19554 14.94198 35056 ft 479 kts 136°
2026-04-20 17:56 50.14744 15.01397 35056 ft 479 kts 136°
2026-04-20 17:57 50.09933 15.08578 35055 ft 479 kts 137°
2026-04-20 17:57 50.05107 15.15741 35053 ft 479 kts 137°
2026-04-20 17:58 50.00282 15.22892 35068 ft 479 kts 137°
2026-04-20 17:58 49.95464 15.30017 35068 ft 478 kts 137°
2026-04-20 17:59 49.90669 15.37087 35067 ft 478 kts 137°
2026-04-20 17:59 49.85843 15.44179 35053 ft 478 kts 137°
2026-04-20 17:59 49.83428 15.47721 34811 ft 478 kts 137°
2026-04-20 18:00 49.81007 15.51270 34577 ft 480 kts 138°
2026-04-20 18:00 49.78572 15.54828 34349 ft 481 kts 138°
2026-04-20 18:00 49.76133 15.58382 34124 ft 482 kts 138°
2026-04-20 18:00 49.73692 15.61937 33872 ft 481 kts 138°
2026-04-20 18:01 49.71258 15.65478 33605 ft 479 kts 138°
2026-04-20 18:01 49.68841 15.68996 33332 ft 476 kts 138°
2026-04-20 18:01 49.66470 15.72450 33069 ft 474 kts 138°
2026-04-20 18:01 49.64079 15.75930 32805 ft 471 kts 138°
2026-04-20 18:02 49.61699 15.79388 32546 ft 468 kts 138°
2026-04-20 18:02 49.59329 15.82817 32287 ft 466 kts 138°
2026-04-20 18:02 49.56971 15.86216 32032 ft 463 kts 138°
2026-04-20 18:02 49.54622 15.89593 31774 ft 460 kts 139°
2026-04-20 18:03 49.52283 15.92955 31518 ft 460 kts 139°
2026-04-20 18:03 49.49948 15.96309 31266 ft 458 kts 139°
2026-04-20 18:03 49.47620 15.99647 31020 ft 456 kts 139°
2026-04-20 18:03 49.45307 16.02958 30727 ft 452 kts 139°
2026-04-20 18:04 49.43010 16.06244 30136 ft 450 kts 139°
2026-04-20 18:04 49.40750 16.09476 29488 ft 447 kts 139°
2026-04-20 18:04 49.38485 16.12718 28923 ft 442 kts 139°
2026-04-20 18:04 49.36245 16.15919 28354 ft 438 kts 139°
2026-04-20 18:05 49.31790 16.22159 27287 ft 427 kts 144°
2026-04-20 18:05 49.29352 16.24672 26781 ft 419 kts 155°
2026-04-20 18:05 49.26672 16.26267 26267 ft 409 kts 168°
2026-04-20 18:06 49.23932 16.27402 25783 ft 405 kts 168°
2026-04-20 18:06 49.21218 16.28514 25295 ft 402 kts 168°
2026-04-20 18:06 49.18528 16.29604 24835 ft 398 kts 168°
2026-04-20 18:06 49.15855 16.30675 24396 ft 394 kts 169°
2026-04-20 18:07 49.13216 16.31725 23964 ft 390 kts 169°
2026-04-20 18:07 49.10636 16.32752 23534 ft 386 kts 169°
2026-04-20 18:07 49.08049 16.33784 23011 ft 383 kts 168°
2026-04-20 18:07 49.05482 16.34806 22509 ft 380 kts 169°
2026-04-20 18:08 49.02935 16.35816 22011 ft 377 kts 168°
2026-04-20 18:08 49.00402 16.36823 21505 ft 375 kts 169°
2026-04-20 18:08 48.97879 16.37825 21026 ft 373 kts 169°
2026-04-20 18:08 48.95375 16.38816 20547 ft 370 kts 169°
2026-04-20 18:09 48.92890 16.39795 20082 ft 368 kts 169°
2026-04-20 18:09 48.90420 16.40768 19620 ft 365 kts 169°
2026-04-20 18:09 48.87962 16.41744 19170 ft 363 kts 168°
2026-04-20 18:09 48.85526 16.42712 18721 ft 361 kts 168°
2026-04-20 18:10 48.83102 16.43672 18278 ft 359 kts 168°
2026-04-20 18:10 48.80690 16.44621 17776 ft 357 kts 168°
2026-04-20 18:10 48.78290 16.45563 17257 ft 355 kts 169°
2026-04-20 18:10 48.75895 16.46503 16769 ft 354 kts 169°
2026-04-20 18:11 48.73510 16.47439 16289 ft 353 kts 169°
2026-04-20 18:11 48.71136 16.48370 15821 ft 352 kts 169°
2026-04-20 18:11 48.68765 16.49299 15357 ft 351 kts 169°
2026-04-20 18:11 48.66402 16.50226 14900 ft 350 kts 169°
2026-04-20 18:12 48.64074 16.51139 14456 ft 349 kts 169°
2026-04-20 18:12 48.61697 16.52069 14005 ft 348 kts 169°
2026-04-20 18:12 48.59353 16.52985 13528 ft 347 kts 169°
2026-04-20 18:12 48.57027 16.53894 13042 ft 345 kts 169°
2026-04-20 18:13 48.54739 16.54788 12556 ft 343 kts 169°
2026-04-20 18:13 48.52404 16.55693 12067 ft 341 kts 169°
2026-04-20 18:13 48.50116 16.56577 11600 ft 339 kts 169°
2026-04-20 18:13 48.47845 16.57459 11211 ft 334 kts 169°
2026-04-20 18:14 48.45647 16.58311 10912 ft 327 kts 169°
2026-04-20 18:14 48.43465 16.59155 10598 ft 321 kts 169°
2026-04-20 18:14 48.41324 16.59988 10341 ft 314 kts 169°
2026-04-20 18:14 48.39239 16.60800 10143 ft 305 kts 169°
2026-04-20 18:15 48.37205 16.61592 9944 ft 297 kts 169°
2026-04-20 18:15 48.35231 16.62363 9734 ft 290 kts 169°
2026-04-20 18:15 48.33305 16.63111 9511 ft 282 kts 170°
2026-04-20 18:15 48.31418 16.63840 9206 ft 279 kts 169°
2026-04-20 18:16 48.29549 16.64556 8869 ft 276 kts 169°
2026-04-20 18:16 48.27701 16.65266 8554 ft 272 kts 169°
2026-04-20 18:16 48.25876 16.65967 8233 ft 269 kts 169°
2026-04-20 18:16 48.24075 16.66662 7927 ft 265 kts 169°
2026-04-20 18:17 48.22300 16.67344 7620 ft 262 kts 169°
2026-04-20 18:17 48.20545 16.68016 7307 ft 259 kts 169°
2026-04-20 18:17 48.18808 16.68681 7012 ft 257 kts 168°
2026-04-20 18:17 48.17085 16.69343 6713 ft 255 kts 168°
2026-04-20 18:18 48.15367 16.70004 6422 ft 254 kts 168°
2026-04-20 18:18 48.13656 16.70663 6095 ft 253 kts 168°
2026-04-20 18:18 48.11951 16.71317 5786 ft 252 kts 167°
2026-04-20 18:18 48.10254 16.71964 5474 ft 251 kts 167°
2026-04-20 18:19 48.08567 16.72608 5161 ft 249 kts 167°
2026-04-20 18:19 48.06903 16.73244 4849 ft 245 kts 166°
2026-04-20 18:19 48.05257 16.73871 4538 ft 242 kts 166°
2026-04-20 18:19 48.03635 16.74489 4245 ft 239 kts 166°
2026-04-20 18:20 48.02042 16.75095 4029 ft 235 kts 166°
2026-04-20 18:20 48.00462 16.75697 3744 ft 234 kts 166°
2026-04-20 18:20 47.98904 16.76290 3444 ft 234 kts 166°
2026-04-20 18:20 47.97286 16.76671 3166 ft 231 kts 187°
2026-04-20 18:21 47.95864 16.75869 3011 ft 218 kts 222°
2026-04-20 18:21 47.95009 16.74092 3004 ft 210 kts 250°
2026-04-20 18:21 47.94499 16.72054 3007 ft 208 kts 255°
2026-04-20 18:21 47.94058 16.69998 2997 ft 208 kts 259°
2026-04-20 18:22 47.94058 16.67899 3005 ft 204 kts 289°
2026-04-20 18:22 47.94675 16.66058 2997 ft 192 kts 312°
2026-04-20 18:22 47.95652 16.64833 3039 ft 180 kts 332°
2026-04-20 18:22 47.96817 16.64206 2989 ft 177 kts 344°
2026-04-20 18:23 47.97997 16.63712 2822 ft 175 kts 344°
2026-04-20 18:23 47.99149 16.63228 2616 ft 169 kts 345°
2026-04-20 18:23 48.00267 16.62758 2399 ft 165 kts 345°
2026-04-20 18:23 48.01360 16.62298 2186 ft 168 kts 344°
2026-04-20 18:24 48.02478 16.61827 1948 ft 160 kts 344°
2026-04-20 18:24 48.03492 16.61400 1763 ft 143 kts 344°
2026-04-20 18:24 48.04408 16.61015 1536 ft 135 kts 345°
2026-04-20 18:24 48.05307 16.60642 1362 ft 134 kts 345°
2026-04-20 18:25 48.06199 16.60277 1145 ft 133 kts 343°
2026-04-20 18:25 48.07083 16.59870 1007 ft 132 kts 345°
2026-04-20 18:25 48.07979 16.59510 831 ft 135 kts 345°
2026-04-20 18:25 48.08882 16.59124 657 ft 134 kts 344°
2026-04-20 18:26 48.09721 16.58771 623 ft 107 kts 344°
2026-04-20 18:26 48.10273 16.58541 616 ft 59 kts 344°
2026-04-20 18:26 48.10633 16.58388 616 ft 48 kts 344°
2026-04-20 18:26 48.10895 16.58274 616 ft 25 kts 341°
2026-04-20 18:27 48.11024 16.58110 614 ft 24 kts 306°
2026-04-20 18:27 48.11057 16.58022 607 ft 13 kts 296°
2026-04-20 18:27 48.11111 16.57914 614 ft 13 kts 324°
2026-04-20 18:27 48.11201 16.57867 617 ft 14 kts 344°
2026-04-20 18:28 48.11290 16.57830 618 ft 13 kts 345°
2026-04-20 18:28 48.11380 16.57791 609 ft 15 kts 344°
2026-04-20 18:28 48.11482 16.57749 615 ft 15 kts 345°
2026-04-20 18:28 48.11593 16.57703 611 ft 19 kts 344°
2026-04-20 18:29 48.11728 16.57646 605 ft 19 kts 343°
2026-04-20 18:29 48.11809 16.57605 608 ft 9 kts 329°
2026-04-20 18:29 48.11829 16.57514 602 ft 10 kts 262°
2026-04-20 18:29 48.11813 16.57426 602 ft 8 kts 254°
2026-04-20 18:30 48.11809 16.57359 603 ft 6 kts 283°
2026-04-20 18:30 48.11835 16.57276 603 ft 11 kts 296°
2026-04-20 18:30 48.11854 16.57167 602 ft 11 kts 274°
2026-04-20 18:30 48.11882 16.57065 601 ft 11 kts 295°
2026-04-20 18:31 48.11904 16.56993 600 ft 4 kts 288°
2026-04-20 18:31 48.11882 16.56959 601 ft 6 kts 208°
2026-04-20 18:31 48.11853 16.56939 601 ft 3 kts 201°
2026-04-20 18:31 48.11846 16.56935 601 ft 0 kts 200°